FW2156 Weather Reports


Display with metric or nautical units.
time (UTC)temp
F
wind
direction
speed
MPH
gust
MPH
rain 1hr
in
rain 24hr
in
rain mn
in
humidity
%
barometer
mb
20260902210613 71 99 3.0 5.0 0.00 0.00 0.00 51 1003.7
20260902210122 71 147 1.0 2.0 0.00 0.00 0.00 50 1004.1
20260902205620 71 178 0.0 1.0 0.00 0.00 0.00 51 1003.7
20260902205121 71 134 1.0 1.0 0.00 0.00 0.00 53 1004.1
20260902204620 71 109 0.0 1.0 0.00 0.00 0.00 53 1003.7
20260902204121 71 2 2.0 2.0 0.00 0.00 0.00 53 1003.7
20260902203619 71 24 3.0 3.0 0.00 0.00 0.00 53 1003.7
20260902203120 71 124 2.0 2.0 0.00 0.00 0.00 54 1003.7
20260902202621 71 80 0.0 1.0 0.00 0.00 0.00 53 1004.1
20260902202119 71 74 1.0 2.0 0.00 0.00 0.00 51 1004.1
20260902201618 70 25 1.0 2.0 0.00 0.00 0.00 52 1004.1
20260902201119 70 107 1.0 2.0 0.00 0.00 0.00 52 1004.1
20260902200617 69 76 3.0 3.0 0.00 0.00 0.00 54 1004.1
20260902200116 69 239 0.0 1.0 0.00 0.00 0.00 56 1004.4
20260902195617 68 206 0.0 1.0 0.00 0.00 0.00 54 1004.1
20260902195116 68 251 2.0 2.0 0.00 0.00 0.00 59 1004.1
20260902194617 67 240 0.0 0.0 0.00 0.00 0.00 61 1004.1
20260902194115 67 281 1.0 2.0 0.00 0.00 0.00 63 1004.4
20260902193615 67 257 2.0 3.0 0.00 0.00 0.00 64 1004.4
20260902193116 67 262 2.0 2.0 0.00 0.00 0.00 65 1004.4
20260902192615 67 330 3.0 3.0 0.00 0.00 0.00 65 1004.4
20260902192114 67 283 2.0 3.0 0.00 0.00 0.00 64 1004.4
20260902191615 66 302 1.0 2.0 0.00 0.00 0.00 63 1004.7
20260902191114 66 292 1.0 1.0 0.00 0.00 0.00 64 1004.7
20260902190613 66 271 1.0 1.0 0.00 0.00 0.00 65 1004.7
20260902190114 66 238 0.0 1.0 0.00 0.00 0.00 63 1004.7
20260902185612 66 227 0.0 0.0 0.00 0.00 0.00 65 1004.7
20260902185115 66 227 0.0 0.0 0.00 0.00 0.00 66 1004.7
20260902184614 66 168 0.0 0.0 0.00 0.00 0.00 66 1004.7
20260902184112 66 36 1.0 1.0 0.00 0.00 0.00 65 1004.7
20260902183612 66 134 0.0 0.0 0.00 0.00 0.00 67 1004.7
20260902183119 65 46 0.0 1.0 0.00 0.00 0.00 65 1004.7
20260902182613 65 63 0.0 1.0 0.00 0.00 0.00 65 1004.7
20260902182115 65 142 0.0 0.0 0.00 0.00 0.00 66 1004.7
20260902181615 64 188 0.0 0.0 0.00 0.00 0.00 65 1004.7
20260902181113 64 53 1.0 1.0 0.00 0.00 0.00 66 1004.7
20260902180611 64 198 0.0 0.0 0.00 0.00 0.00 66 1004.7
20260902180045 64 233 1.0 1.0 0.00 0.00 0.00 66 1004.7
20260902175539 64 237 1.0 2.0 0.00 0.00 0.00 68 1004.7
20260902175038 64 219 0.0 1.0 0.00 0.00 0.00 69 1004.7
20260902174535 64 263 1.0 1.0 0.00 0.00 0.00 69 1004.7
20260902174036 63 256 0.0 1.0 0.00 0.00 0.00 69 1004.7
20260902173540 63 284 1.0 2.0 0.00 0.00 0.00 69 1004.7
20260902173037 63 229 0.0 0.0 0.00 0.00 0.00 67 1004.7
20260902172536 63 212 0.0 0.0 0.00 0.00 0.00 66 1004.7
20260902172024 63 184 0.0 0.0 0.00 0.00 0.00 68 1004.7
20260902171525 63 103 0.0 1.0 0.00 0.00 0.00 69 1004.7
20260902171023 63 316 0.0 1.0 0.00 0.00 0.00 69 1004.7
20260902170526 64 241 1.0 1.0 0.00 0.00 0.00 70 1004.7
20260902170026 64 258 1.0 1.0 0.00 0.00 0.00 69 1004.7
20260902165525 63 256 1.0 1.0 0.00 0.00 0.00 67 1004.7
20260902165024 63 236 1.0 1.0 0.00 0.00 0.00 66 1004.7
20260902164523 63 125 0.0 1.0 0.00 0.00 0.00 66 1004.7
20260902164024 63 217 0.0 0.0 0.00 0.00 0.00 67 1004.7
20260902163524 63 222 0.0 0.0 0.00 0.00 0.00 66 1004.7
20260902163023 64 208 0.0 0.0 0.00 0.00 0.00 68 1004.7
20260902162524 64 125 2.0 2.0 0.00 0.00 0.00 69 1004.7
20260902162023 64 101 2.0 3.0 0.00 0.00 0.00 69 1004.4
20260902161526 64 76 0.0 1.0 0.00 0.00 0.00 61 1004.1
20260902161026 63 164 0.0 0.0 0.00 0.00 0.00 62 1004.1
20260902160523 63 314 0.0 0.0 0.00 0.00 0.00 64 1004.1
20260902160025 63 298 1.0 1.0 0.00 0.00 0.00 64 1004.1
20260902155525 63 286 0.0 1.0 0.00 0.00 0.00 65 1004.1
20260902155027 63 232 1.0 2.0 0.00 0.00 0.00 66 1004.1
20260902154519 62 247 0.0 0.0 0.00 0.00 0.00 64 1004.1
20260902154019 62 250 1.0 1.0 0.00 0.00 0.00 66 1004.1
20260902153519 62 235 1.0 2.0 0.00 0.00 0.00 65 1004.1
20260902153019 62 222 0.0 0.0 0.00 0.00 0.00 66 1004.1
20260902152524 61 259 2.0 2.0 0.00 0.00 0.00 66 1004.1
20260902152020 61 329 0.0 1.0 0.00 0.00 0.00 67 1004.1
20260902151528 61 277 1.0 2.0 0.00 0.00 0.00 67 1004.4
20260902151020 60 276 1.0 2.0 0.00 0.00 0.00 68 1004.4
20260902150521 60 278 1.0 1.0 0.00 0.00 0.00 70 1004.1
20260902150022 60 265 1.0 1.0 0.00 0.00 0.00 71 1004.4
20260902145516 59 289 2.0 2.0 0.00 0.00 0.00 70 1004.4
20260902144944 59 232 0.0 0.0 0.00 0.00 0.00 71 1004.4
20260902144442 59 281 2.0 2.0 0.00 0.00 0.00 72 1004.7
20260902143944 58 257 1.0 1.0 0.00 0.00 0.00 73 1004.4
20260902143444 58 255 1.0 1.0 0.00 0.00 0.00 74 1004.4
20260902142943 58 253 1.0 1.0 0.00 0.00 0.00 74 1004.4
20260902142440 57 223 0.0 1.0 0.00 0.00 0.00 76 1004.1
20260902141942 57 223 0.0 0.0 0.00 0.00 0.00 78 1004.1
20260902141419 57 223 0.0 0.0 0.00 0.00 0.00 79 1004.1
20260902140915 57 234 0.0 0.0 0.00 0.00 0.00 80 1004.4
20260902140418 57 212 0.0 0.0 0.00 0.00 0.00 80 1004.4
20260902135914 57 224 0.0 0.0 0.00 0.00 0.00 81 1004.4
20260902135415 57 242 0.0 0.0 0.00 0.00 0.00 81 1004.4
20260902134912 57 239 0.0 1.0 0.00 0.00 0.00 81 1004.4
20260902134416 57 203 0.0 0.0 0.00 0.00 0.00 80 1004.1
20260902133914 57 176 0.0 0.0 0.00 0.00 0.00 80 1004.1
20260902133411 57 186 0.0 0.0 0.00 0.00 0.00 79 1004.1
20260902132914 57 193 0.0 0.0 0.00 0.00 0.00 78 1004.4
20260902132412 57 171 0.0 0.0 0.00 0.00 0.00 78 1004.1
20260902131912 57 162 1.0 1.0 0.00 0.00 0.00 77 1004.1
20260902131413 57 192 0.0 0.0 0.00 0.00 0.00 78 1004.1
20260902130913 57 216 0.0 0.0 0.00 0.00 0.00 78 1004.1
20260902130412 57 236 0.0 1.0 0.00 0.00 0.00 78 1004.1
20260902125910 57 223 0.0 1.0 0.00 0.00 0.00 79 1004.1
20260902125413 56 244 1.0 1.0 0.00 0.00 0.00 78 1004.1
20260902124911 56 242 0.0 1.0 0.00 0.00 0.00 78 1003.7
20260902124414 56 248 0.0 1.0 0.00 0.00 0.00 78 1003.7
20260902123858 56 248 0.0 1.0 0.00 0.00 0.00 78 1003.7
20260902123352 56 223 0.0 1.0 0.00 0.00 0.00 80 1003.7
20260902122850 56 197 0.0 0.0 0.00 0.00 0.00 81 1003.7
20260902122337 56 200 0.0 0.0 0.00 0.00 0.00 81 1003.7
20260902121844 56 192 0.0 0.0 0.00 0.00 0.00 81 1003.7
20260902121336 56 186 0.0 0.0 0.00 0.00 0.00 82 1003.7
20260902120841 55 220 0.0 0.0 0.00 0.00 0.00 83 1004.1
20260902120252 55 67 1.0 2.0 0.00 0.00 0.00 82 1004.1
20260902115720 55 221 0.0 0.0 0.00 0.00 0.00 81 1004.1
20260902115149 55 227 0.0 1.0 0.00 0.00 0.00 82 1004.1
20260902114625 55 233 0.0 1.0 0.00 0.00 0.00 82 1004.1
20260902114103 55 224 0.0 1.0 0.00 0.00 0.00 83 1004.1
20260902113539 55 221 0.0 0.0 0.00 0.00 0.00 83 1004.1
20260902113036 55 222 0.0 0.0 0.00 0.00 0.00 83 1004.1
20260902112540 55 235 0.0 1.0 0.00 0.00 0.00 83 1004.1
20260902112047 55 251 0.0 1.0 0.00 0.00 0.00 83 1004.1
20260902111535 55 235 0.0 0.0 0.00 0.00 0.00 83 1004.1
20260902111023 55 217 0.0 0.0 0.00 0.00 0.00 82 1004.1
20260902110512 55 265 0.0 1.0 0.00 0.00 0.00 82 1004.1
20260902110008 55 234 0.0 0.0 0.00 0.00 0.00 82 1004.1
20260902105452 55 244 0.0 1.0 0.00 0.00 0.00 81 1004.1
20260902104939 55 239 1.0 1.0 0.00 0.00 0.00 81 1004.4
20260902104430 55 233 0.0 1.0 0.00 0.00 0.00 81 1004.1
20260902103922 55 254 0.0 1.0 0.00 0.00 0.00 81 1004.4
20260902103415 55 228 0.0 0.0 0.00 0.00 0.00 81 1004.1
20260902102913 55 211 0.0 0.0 0.00 0.00 0.00 82 1004.4
20260902102414 55 218 0.0 0.0 0.00 0.00 0.00 82 1004.4
20260902101942 56 215 0.0 0.0 0.00 0.00 0.00 81 1004.1
20260902101437 56 213 0.0 0.0 0.00 0.00 0.00 81 1004.4
20260902100914 56 216 0.0 0.0 0.00 0.00 0.00 81 1004.4
20260902100404 56 222 0.0 1.0 0.00 0.00 0.00 80 1004.4
20260902095903 56 231 0.0 0.0 0.00 0.00 0.00 80 1004.4
20260902095401 56 224 1.0 1.0 0.00 0.00 0.00 79 1004.4
20260902094903 56 214 0.0 0.0 0.00 0.00 0.00 78 1004.4
20260902094402 56 218 0.0 0.0 0.00 0.00 0.00 77 1004.4
20260902093900 56 231 0.0 0.0 0.00 0.00 0.00 77 1004.4
20260902093359 56 223 0.0 0.0 0.00 0.00 0.00 77 1004.7
20260902092900 57 167 0.0 0.0 0.00 0.00 0.00 78 1004.7
20260902092402 57 196 0.0 0.0 0.00 0.00 0.00 79 1004.7
20260902091901 57 188 0.0 0.0 0.00 0.00 0.00 77 1004.7
20260902091401 58 131 0.0 1.0 0.00 0.00 0.00 76 1004.7
20260902090901 58 180 0.0 0.0 0.00 0.00 0.00 76 1004.4
20260902090338 58 223 0.0 0.0 0.00 0.00 0.00 75 1004.4
20260902085859 58 225 0.0 0.0 0.00 0.00 0.00 74 1004.4
20260902085359 58 238 0.0 0.0 0.00 0.00 0.00 74 1004.7
20260902084900 58 247 0.0 0.0 0.00 0.00 0.00 73 1004.4
20260902084357 58 279 1.0 2.0 0.00 0.00 0.00 72 1004.4
20260902083859 58 264 1.0 1.0 0.00 0.00 0.00 72 1004.7
20260902083357 58 235 1.0 1.0 0.00 0.00 0.00 72 1004.7
20260902082857 58 275 1.0 1.0 0.00 0.00 0.00 73 1004.7
20260902082358 58 224 0.0 1.0 0.00 0.00 0.00 74 1004.7
20260902081857 58 233 0.0 0.0 0.00 0.00 0.00 75 1005.1
20260902081356 59 233 0.0 0.0 0.00 0.00 0.00 76 1004.7
20260902080855 59 274 1.0 1.0 0.00 0.00 0.00 75 1004.7
20260902080359 59 229 1.0 1.0 0.00 0.00 0.00 73 1004.7
20260902075854 59 211 0.0 0.0 0.00 0.00 0.00 73 1004.7
20260902075353 59 196 0.0 0.0 0.00 0.00 0.00 74 1004.7
20260902074855 59 188 0.0 0.0 0.00 0.00 0.00 72 1004.7
20260902074353 59 180 0.0 0.0 0.00 0.00 0.00 71 1004.7
20260902073853 59 178 0.0 0.0 0.00 0.00 0.00 71 1004.7
20260902073356 59 183 0.0 0.0 0.00 0.00 0.00 71 1005.1
20260902072852 59 183 0.0 0.0 0.00 0.00 0.00 72 1004.7
20260902072352 59 198 0.0 0.0 0.00 0.00 0.00 72 1005.1
20260902071853 59 191 0.0 0.0 0.00 0.00 0.00 72 1005.1
20260902071351 60 193 0.0 0.0 0.00 0.00 0.00 71 1005.4
20260902070853 60 177 0.0 0.0 0.00 0.00 0.00 70 1005.4
20260902070356 60 176 0.0 0.0 0.00 0.00 0.00 71 1005.4
20260902065852 60 178 0.0 0.0 0.00 0.00 0.00 70 1005.4
20260902065351 60 175 0.0 0.0 0.00 0.00 0.00 70 1005.4
20260902064852 60 175 0.0 0.0 0.00 0.00 0.00 70 1005.1
20260902064350 61 176 0.0 0.0 0.00 0.00 0.00 70 1005.4
20260902063852 61 175 0.0 0.0 0.00 0.00 0.00 70 1005.4
20260902063349 61 179 0.0 0.0 0.00 0.00 0.00 70 1005.4
20260902062850 61 178 0.0 0.0 0.00 0.00 0.00 69 1005.1
20260902062350 61 175 0.0 0.0 0.00 0.00 0.00 69 1005.4
20260902061848 61 174 0.0 0.0 0.00 0.00 0.00 68 1005.4
20260902061348 61 185 0.0 0.0 0.00 0.00 0.00 68 1005.4
20260902060751 61 172 0.0 0.0 0.00 0.00 0.00 66 1005.4
20260902060248 61 139 0.0 0.0 0.00 0.00 0.00 66 1005.4
20260902055746 61 173 0.0 0.0 0.00 0.00 0.00 66 1005.4
20260902055248 61 173 0.0 0.0 0.00 0.00 0.00 66 1005.4
20260902054748 60 180 0.0 0.0 0.00 0.00 0.00 68 1005.4
20260902054245 60 180 0.0 0.0 0.00 0.00 0.00 68 1005.4
20260902053748 61 177 0.0 0.0 0.00 0.00 0.00 70 1005.8
20260902053249 61 184 0.0 0.0 0.00 0.00 0.00 71 1005.8
20260902052747 61 182 0.0 0.0 0.00 0.00 0.00 70 1005.8
20260902052248 61 176 0.0 0.0 0.00 0.00 0.00 68 1005.8
20260902051747 61 177 0.0 0.0 0.00 0.00 0.00 68 1005.8
20260902051248 62 199 0.0 0.0 0.00 0.00 0.00 69 1005.8
20260902050748 62 196 0.0 0.0 0.00 0.00 0.00 68 1005.8
20260902050245 62 201 0.0 0.0 0.00 0.00 0.00 68 1005.8
20260902045746 62 198 0.0 0.0 0.00 0.00 0.00 69 1005.8
20260902045245 63 193 0.0 0.0 0.00 0.00 0.00 69 1005.8
20260902044745 63 197 0.0 0.0 0.00 0.00 0.00 69 1005.8
20260902044243 64 196 0.0 0.0 0.00 0.00 0.00 68 1005.8
20260902043742 64 191 0.0 0.0 0.00 0.00 0.00 67 1005.8
20260902043242 65 148 0.0 0.0 0.00 0.00 0.00 67 1006.1
20260902042742 65 148 0.0 0.0 0.00 0.00 0.00 67 1005.8
20260902042142 66 148 0.0 0.0 0.00 0.00 0.00 66 1006.1
20260902041643 66 148 0.0 0.0 0.00 0.00 0.00 65 1005.8
20260902041140 67 148 0.0 0.0 0.00 0.00 0.00 64 1005.8
20260902040641 67 146 0.0 0.0 0.00 0.00 0.00 63 1005.8
20260902040140 67 146 0.0 0.0 0.00 0.00 0.00 62 1005.8
20260902035640 68 146 0.0 0.0 0.00 0.00 0.00 61 1006.1
20260902035140 68 146 0.0 0.0 0.00 0.00 0.00 61 1005.8
20260902034639 68 146 0.0 0.0 0.00 0.00 0.00 60 1006.1
20260902034139 68 146 0.0 0.0 0.00 0.00 0.00 60 1006.1
20260902033638 69 142 0.0 0.0 0.00 0.00 0.00 60 1006.1
20260902033139 69 142 0.0 0.0 0.00 0.00 0.00 59 1005.8
20260902032639 69 142 0.0 0.0 0.00 0.00 0.00 58 1006.1
20260902032138 69 141 0.0 0.0 0.00 0.00 0.00 57 1005.8
20260902031636 69 141 0.0 0.0 0.00 0.00 0.00 57 1006.1
20260902031138 70 141 0.0 0.0 0.00 0.00 0.00 56 1005.8
20260902030637 70 138 0.0 0.0 0.00 0.00 0.00 56 1006.1
20260902030138 70 138 0.0 0.0 0.00 0.00 0.00 55 1006.1
20260902025637 70 146 0.0 0.0 0.00 0.00 0.00 55 1006.1
20260902025136 71 99 0.0 0.0 0.00 0.00 0.00 54 1005.8
20260902024635 71 18 1.0 1.0 0.00 0.00 0.00 53 1005.8
20260902024137 71 152 0.0 0.0 0.00 0.00 0.00 53 1005.8
20260902023634 72 142 0.0 0.0 0.00 0.00 0.00 53 1006.1
20260902023136 72 143 0.0 0.0 0.00 0.00 0.00 52 1005.8
20260902022635 72 142 0.0 0.0 0.00 0.00 0.00 52 1005.8
20260902022135 73 145 0.0 0.0 0.00 0.00 0.00 51 1006.1
20260902021634 73 170 0.0 0.0 0.00 0.00 0.00 51 1005.8
20260902021135 74 153 0.0 0.0 0.00 0.00 0.00 50 1005.8
20260902020634 74 161 0.0 0.0 0.00 0.00 0.00 49 1006.1
20260902020135 75 177 0.0 0.0 0.00 0.00 0.00 48 1006.1
20260902015632 75 165 0.0 0.0 0.00 0.00 0.00 48 1006.1
20260902015133 75 148 0.0 0.0 0.00 0.00 0.00 47 1005.8
20260902014633 75 132 1.0 2.0 0.00 0.00 0.00 46 1006.1
20260902014133 76 154 0.0 0.0 0.00 0.00 0.00 47 1006.1
20260902013631 76 145 0.0 0.0 0.00 0.00 0.00 46 1005.8
20260902013131 76 137 0.0 1.0 0.00 0.00 0.00 46 1005.8
20260902012631 76 139 0.0 1.0 0.00 0.00 0.00 45 1006.1
20260902012131 76 106 0.0 1.0 0.00 0.00 0.00 45 1006.1
20260902011632 76 147 0.0 0.0 0.00 0.00 0.00 45 1005.8
20260902011129 76 122 1.0 1.0 0.00 0.00 0.00 45 1005.8
20260902010632 77 133 0.0 0.0 0.00 0.00 0.00 45 1006.1
20260902010130 77 84 0.0 0.0 0.00 0.00 0.00 44 1006.1
20260902005628 77 114 1.0 1.0 0.00 0.00 0.00 45 1006.1
20260902005129 77 70 3.0 3.0 0.00 0.00 0.00 45 1005.8
20260902004629 77 168 1.0 1.0 0.00 0.00 0.00 45 1006.1
20260902004129 77 233 0.0 1.0 0.00 0.00 0.00 44 1005.8
20260902003627 77 88 1.0 2.0 0.00 0.00 0.00 43 1006.1
20260902003129 78 36 1.0 2.0 0.00 0.00 0.00 43 1006.1
20260902002627 78 117 1.0 1.0 0.00 0.00 0.00 43 1006.1
20260902002127 78 79 1.0 2.0 0.00 0.00 0.00 43 1006.1
20260902001628 78 175 0.0 1.0 0.00 0.00 0.00 42 1006.1
20260902001126 79 107 2.0 2.0 0.00 0.00 0.00 42 1006.1
20260902000627 79 228 3.0 6.0 0.00 0.00 0.00 43 1006.1
20260902000151 79 59 2.0 3.0 0.00 0.00 0.00 42 1006.1
20260901235634 79 212 0.0 0.0 0.00 0.00 0.00 42 1006.1
20260901235158 79 197 1.0 1.0 0.00 0.00 0.00 42 1006.1
20260901234625 79 138 1.0 2.0 0.00 0.00 0.00 43 1006.4
20260901234124 79 95 1.0 2.0 0.00 0.00 0.00 43 1006.4
20260901233631 79 215 1.0 1.0 0.00 0.00 0.00 42 1006.1
20260901233129 78 161 1.0 2.0 0.00 0.00 0.00 43 1006.1
20260901232626 78 69 1.0 1.0 0.00 0.00 0.00 42 1006.1
20260901232123 78 223 0.0 0.0 0.00 0.00 0.00 43 1006.1
20260901231628 78 26 0.0 1.0 0.00 0.00 0.00 42 1006.4
20260901231132 77 239 0.0 0.0 0.00 0.00 0.00 43 1006.4
20260901230628 77 104 0.0 1.0 0.00 0.00 0.00 43 1006.1
20260901230122 77 95 0.0 1.0 0.00 0.00 0.00 43 1006.4
20260901225628 78 153 2.0 3.0 0.00 0.00 0.00 43 1006.4
20260901225128 78 156 1.0 1.0 0.00 0.00 0.00 43 1006.4
20260901224618 78 217 0.0 0.0 0.00 0.00 0.00 43 1006.4
20260901224121 79 129 1.0 1.0 0.00 0.00 0.00 41 1006.4
20260901223621 78 217 0.0 0.0 0.00 0.00 0.00 41 1006.4
20260901223132 78 70 1.0 1.0 0.00 0.00 0.00 40 1006.4
20260901222617 78 342 1.0 2.0 0.00 0.00 0.00 40 1006.8
20260901222117 77 152 0.0 1.0 0.00 0.00 0.00 40 1006.4
20260901221617 77 158 1.0 1.0 0.00 0.00 0.00 41 1006.4
20260901221116 77 270 1.0 1.0 0.00 0.00 0.00 41 1006.8
20260901220616 77 143 1.0 2.0 0.00 0.00 0.00 42 1006.8
20260901220117 77 156 1.0 2.0 0.00 0.00 0.00 42 1006.8
20260901215617 77 104 2.0 2.0 0.00 0.00 0.00 42 1006.8
20260901215117 78 150 1.0 2.0 0.00 0.00 0.00 42 1006.8
20260901214615 78 195 2.0 3.0 0.00 0.00 0.00 42 1006.8
20260901214116 78 309 1.0 2.0 0.00 0.00 0.00 43 1006.8
20260901213614 78 200 1.0 2.0 0.00 0.00 0.00 44 1007.1
20260901213114 79 324 0.0 1.0 0.00 0.00 0.00 44 1007.1
20260901212615 79 219 1.0 1.0 0.00 0.00 0.00 43 1007.1
20260901212115 79 122 1.0 2.0 0.00 0.00 0.00 45 1007.1
20260901211613 79 158 2.0 3.0 0.00 0.00 0.00 45 1007.1
20260901211114 78 281 0.0 1.0 0.00 0.00 0.00 44 1007.1